Hallock, MN

6:57 PM CDT on June 22, 2017 (GMT -0500)
Hallock Municipal

Weather History for KHCO - May, 2013

Change the Weather History Date:

Thursday, May 23, 2013

  Actual Average Record
Temperature  
Mean Temperature 54 °F -  
Max Temperature 64 °F 71 °F 93 °F (2006)
Min Temperature 44 °F 46 °F 23 °F (1947)
Degree Days  
Heating Degree Days 11    
Growing Degree Days 4 (Base 50)    
Moisture  
Dew Point 31 °F    
Average Humidity 44    
Maximum Humidity 66    
Minimum Humidity 20    
Precipitation  
Precipitation 0.00 in - - ()
Sea Level Pressure  
Sea Level Pressure 30.30 in    
Wind  
Wind Speed 9 mph (East)    
Max Wind Speed 14 mph    
Max Gust Speed 21 mph    
Visibility 10 miles    
Events      
Averages and records for this station are not official NWS values.
T = Trace of Precipitation, MM = Missing Value Source: NWS Daily Summary

Daily Weather History Graph

Daily Weather History Graph

Search for Another Location

Airport or City:

Trip Planner

Search our weather history database for the weather conditions in past years. The results will help you decide how hot, cold, wet, or windy it might be!

Date:

Astronomy

May. 23, 2013 Rise Set
Actual Time 5:36 AM CDT 9:13 PM CDT
Civil Twilight 4:57 AM CDT 9:52 PM CDT
Nautical Twilight 4:04 AM CDT 10:46 PM CDT
Astronomical Twilight 2:50 AM CDT 12:01 AM CDT
Moon 7:41 PM CDT (5/23) 4:31 AM CDT (5/23)
Length of Visible Light 16h 55m
Length of Day
15h 36m
Waxing Gibbous, 97% of the Moon is Illuminated
May 23
Waxing Gibbous
May 24
Full
May 31
Last Quarter
Jun 8
New
Jun 16
First Quarter

Hourly Weather History & Observations

Time (CDT) Temp. Windchill Dew Point Humidity Pressure Visibility Wind Dir Wind Speed Gust Speed Precip Events Conditions
12:13 AM 53.6 °F - 37.4 °F 54% 30.19 in 10.0 mi NE 8.1 mph - N/A   Clear
12:33 AM 53.6 °F - 39.2 °F 58% 30.19 in 10.0 mi NE 6.9 mph - N/A   Clear
12:53 AM 51.8 °F - 37.4 °F 58% 30.20 in 10.0 mi NE 6.9 mph - N/A   Clear
1:13 AM 51.8 °F - 37.4 °F 58% 30.21 in 10.0 mi NNE 6.9 mph - N/A   Clear
1:33 AM 51.8 °F - 37.4 °F 58% 30.22 in 10.0 mi NE 9.2 mph - N/A   Clear
1:53 AM 50.0 °F - 37.4 °F 62% 30.23 in 10.0 mi NE 8.1 mph - N/A   Clear
2:13 AM 50.0 °F - 37.4 °F 62% 30.24 in 10.0 mi NE 9.2 mph - N/A   Clear
2:33 AM 48.2 °F - 37.4 °F 66% 30.25 in 10.0 mi NE 6.9 mph - N/A   Clear
2:53 AM 48.2 °F - 37.4 °F 66% 30.25 in 10.0 mi ENE 6.9 mph - N/A   Clear
3:13 AM 48.2 °F - 37.4 °F 66% 30.26 in 10.0 mi ENE 6.9 mph - N/A   Clear
3:33 AM 46.4 °F 41.9 °F 35.6 °F 66% 30.26 in 10.0 mi ENE 9.2 mph - N/A   Clear
3:53 AM 48.2 °F - 35.6 °F 62% 30.27 in 10.0 mi ENE 9.2 mph - N/A   Clear
4:13 AM 46.4 °F 42.4 °F 35.6 °F 66% 30.28 in 10.0 mi ENE 8.1 mph - N/A   Clear
4:33 AM 46.4 °F 42.4 °F 35.6 °F 66% 30.29 in 10.0 mi ENE 8.1 mph - N/A   Clear
4:53 AM 46.4 °F 41.9 °F 35.6 °F 66% 30.29 in 10.0 mi East 9.2 mph - N/A   Clear
5:13 AM 44.6 °F 40.2 °F 33.8 °F 66% 30.30 in 10.0 mi East 8.1 mph - N/A   Clear
5:33 AM 44.6 °F 40.2 °F 33.8 °F 66% 30.31 in 10.0 mi East 8.1 mph - N/A   Clear
5:53 AM 44.6 °F 38.8 °F 33.8 °F 66% 30.31 in 10.0 mi ENE 11.5 mph - N/A   Clear
6:13 AM 44.6 °F 38.8 °F 33.8 °F 66% 30.31 in 10.0 mi East 11.5 mph - N/A   Clear
6:33 AM 44.6 °F 38.8 °F 33.8 °F 66% 30.32 in 10.0 mi East 11.5 mph - N/A   Clear
6:54 AM 44.6 °F 39.2 °F 33.8 °F 66% 30.33 in 10.0 mi East 10.4 mph - N/A   Clear
7:13 AM 46.4 °F 41.1 °F 33.8 °F 62% 30.33 in 10.0 mi East 11.5 mph - N/A   Clear
7:33 AM 48.2 °F - 33.8 °F 58% 30.34 in 10.0 mi East 12.7 mph - N/A   Clear
7:54 AM 48.2 °F - 33.8 °F 58% 30.35 in 10.0 mi East 13.8 mph - N/A   Clear
8:13 AM 48.2 °F - 33.8 °F 58% 30.35 in 10.0 mi East 13.8 mph - N/A   Clear
8:33 AM 50.0 °F - 32.0 °F 50% 30.35 in 10.0 mi East 13.8 mph - N/A   Clear
8:54 AM 51.8 °F - 33.8 °F 50% 30.36 in 10.0 mi East 12.7 mph - N/A   Clear
9:13 AM 51.8 °F - 33.8 °F 50% 30.37 in 10.0 mi East 11.5 mph - N/A   Clear
9:33 AM 53.6 °F - 33.8 °F 47% 30.37 in 10.0 mi East 9.2 mph - N/A   Clear
9:54 AM 53.6 °F - 35.6 °F 51% 30.37 in 10.0 mi East 9.2 mph - N/A   Clear
10:13 AM 53.6 °F - 33.8 °F 47% 30.37 in 10.0 mi East 9.2 mph - N/A   Clear
10:33 AM 55.4 °F - 33.8 °F 44% 30.37 in 10.0 mi East 10.4 mph - N/A   Clear
10:54 AM 55.4 °F - 30.2 °F 38% 30.37 in 10.0 mi East 9.2 mph - N/A   Clear
11:13 AM 55.4 °F - 30.2 °F 38% 30.37 in 10.0 mi ENE 8.1 mph 16.1 mph N/A   Clear
11:33 AM 57.2 °F - 28.4 °F 33% 30.36 in 10.0 mi ENE 8.1 mph - N/A   Clear
11:54 AM 57.2 °F - 32.0 °F 38% 30.36 in 10.0 mi East 10.4 mph - N/A   Clear
12:13 PM 57.2 °F - 30.2 °F 36% 30.36 in 10.0 mi East 11.5 mph 16.1 mph N/A   Clear
12:33 PM 59.0 °F - 30.2 °F 34% 30.36 in 10.0 mi East 9.2 mph - N/A   Clear
12:54 PM 59.0 °F - 30.2 °F 34% 30.35 in 10.0 mi ENE 9.2 mph - N/A   Clear
1:13 PM 59.0 °F - 28.4 °F 31% 30.35 in 10.0 mi ENE 9.2 mph - N/A   Clear
1:33 PM 60.8 °F - 26.6 °F 27% 30.35 in 10.0 mi NE 9.2 mph - N/A   Clear
1:53 PM 60.8 °F - 28.4 °F 29% 30.34 in 10.0 mi East 5.8 mph - N/A   Clear
2:13 PM 60.8 °F - 28.4 °F 29% 30.34 in 10.0 mi East 9.2 mph - N/A   Clear
2:33 PM 62.6 °F - 30.2 °F 30% 30.33 in 10.0 mi East 8.1 mph 20.7 mph N/A   Clear
2:53 PM 62.6 °F - 30.2 °F 30% 30.33 in 10.0 mi ESE 9.2 mph - N/A   Clear
3:13 PM 62.6 °F - 28.4 °F 27% 30.33 in 10.0 mi East 4.6 mph - N/A   Clear
3:33 PM 64.4 °F - 30.2 °F 28% 30.32 in 10.0 mi SSE 8.1 mph - N/A   Clear
3:53 PM 62.6 °F - 28.4 °F 27% 30.32 in 10.0 mi East 5.8 mph - N/A   Clear
4:13 PM 64.4 °F - 28.4 °F 26% 30.31 in 10.0 mi East 9.2 mph - N/A   Clear
4:33 PM 64.4 °F - 28.4 °F 26% 30.30 in 10.0 mi ESE 6.9 mph - N/A   Clear
4:53 PM 64.4 °F - 28.4 °F 26% 30.30 in 10.0 mi East 3.5 mph - N/A   Clear
5:13 PM 64.4 °F - 28.4 °F 26% 30.30 in 10.0 mi ESE 6.9 mph 10.4 mph N/A   Clear
5:33 PM 64.4 °F - 28.4 °F 26% 30.30 in 10.0 mi ESE 5.8 mph - N/A   Clear
5:53 PM 64.4 °F - 28.4 °F 26% 30.29 in 10.0 mi ESE 10.4 mph - N/A   Clear
6:13 PM 64.4 °F - 26.6 °F 24% 30.29 in 10.0 mi SSE 8.1 mph - N/A   Clear
6:33 PM 64.4 °F - 24.8 °F 22% 30.29 in 10.0 mi ESE 9.2 mph - N/A   Clear
6:53 PM 64.4 °F - 24.8 °F 22% 30.29 in 10.0 mi ESE 6.9 mph - N/A   Clear
7:13 PM 64.4 °F - 24.8 °F 22% 30.28 in 10.0 mi ESE 10.4 mph - N/A   Clear
7:33 PM 62.6 °F - 23.0 °F 22% 30.27 in 10.0 mi ESE 10.4 mph - N/A   Clear
7:53 PM 62.6 °F - 21.2 °F 20% 30.27 in 10.0 mi East 8.1 mph - N/A   Clear
8:13 PM 62.6 °F - 23.0 °F 22% 30.27 in 10.0 mi East 10.4 mph - N/A   Clear
8:33 PM 60.8 °F - 26.6 °F 27% 30.27 in 10.0 mi East 9.2 mph - N/A   Clear
8:53 PM 57.2 °F - 26.6 °F 31% 30.27 in 10.0 mi East 8.1 mph - N/A   Clear
9:13 PM 55.4 °F - 26.6 °F 33% 30.28 in 10.0 mi East 9.2 mph - N/A   Clear
9:33 PM 53.6 °F - 28.4 °F 38% 30.28 in 10.0 mi East 9.2 mph - N/A   Clear
9:53 PM 53.6 °F - 30.2 °F 41% 30.29 in 10.0 mi East 9.2 mph - N/A   Clear
10:13 PM 51.8 °F - 30.2 °F 44% 30.29 in 10.0 mi East 9.2 mph - N/A   Clear
10:33 PM 50.0 °F - 28.4 °F 43% 30.29 in 10.0 mi East 9.2 mph - N/A   Clear
10:53 PM 50.0 °F - 26.6 °F 40% 30.30 in 10.0 mi East 9.2 mph - N/A   Clear
11:13 PM 48.2 °F - 26.6 °F 43% 30.29 in 10.0 mi East 10.4 mph - N/A   Clear
11:33 PM 48.2 °F - 26.6 °F 43% 30.29 in 10.0 mi East 10.4 mph - N/A   Clear
11:53 PM 48.2 °F - 28.4 °F 46% 30.29 in 10.0 mi East 10.4 mph - N/A   Clear